TITAN 3C TRANSTAGE DEB, 1829

Orbit data source: Space-Track

TITAN 3C TRANSTAGE DEB, 1829 is space debris in LEO originally from a launch on Fri, 15 Oct 1965 UTC launched from the Air Force Eastern Test Range (AFETR). Debris objects in space refer to the collection of defunct objects orbiting the Earth. Examples of debris include non-operational satellites, rocket bodies, and fragments generated from explosions, collisions, or faulty payload assembly.

Loading next visibility...
TITAN 3C TRANSTAGE DEB details
Identifier
1829, 1965-082DU
Orbit
LEO
Last TLE update20 hours ago
Origin
Flag of USUSAF SSD (US)
ManufacturerUnknown
MissionSpacecraft
Bus & MotorUnknown
MassUnknown
Launch date (UTC)
1965-10-15 (59 years ago)
Launch vehicleUnknown
Launch site
Air Force Eastern Test Range (AFETR)
Object type
Payload
Rocket body
Debris
Shape & HBRUnknown
Radar Cross SectionSmall (<0.1 m²)

Expand to show TLE details & history

TLE from 20 hours ago
0 TITAN 3C TRANSTAGE DEB
1 01829U 65082DU  24356.43397376  .00004617  00000-0  51855-3 0  9998
2 01829  32.2911  25.1946 0025720  46.9910 313.2895 14.85342102139635
Epoch: 2024-12-21T10:24Z
Definitive object data (Epoch: 2024-12-21T10:24:55.332Z)
Latitude-0.00003°
Longitude138.47882°
Altitude598.863 km
Speed7.569 km/s
True Right ascension01h 40m 46s
True Declination0° 00' 00"
Sunlit
Object was in daylight at TLE epoch
Visualization TLE readout
Latitude32.43264°
Longitude-136.63914°
Altitude597.681 km
Speed7.574 km/s
Apparent Right ascension11h 04m 53s
Apparent Declination-6° 29' 56"
Sunlit
Object is in full shadow
Visualization observer readout
Local Sidereal Time05:15:02
Azimuth96.609° ESE
Elevation-2.231°
Doppler factor1
Orbital elements
Apogee altitude634.11 km
Perigee altitude598.132 km
Semi-major axis6,994.258 km
Eccentricity0.002572
Inclination32.2911°
RAAN25.1946°
Arg. of periapsis46.991°
True anomaly313.07449°
Mean anomaly313.2895°
Eccentric anomaly313.18204°
Mean motion3.71049 °/min
BSTAR0.00051855
Orbital period97.02 mins
Loading maneuver chart data...

TITAN 3C TRANSTAGE DEB Visibility forecast

Observer location: undefined°, undefined

Span
Click to sort rows by Start time (UTC) header in descending order
Start Az.
Max El. time (UTC)
Max El. Az.
Max El.
End time (UTC)
End Az.
7 mins2024-12-22 07:42:19.229Z232.777° WSW2024-12-22 07:45:19.229Z184.712° SSW25.943°2024-12-22 07:49:19.229Z116.771° SE
6 mins2024-12-22 09:25:19.229Z235.282° WSW2024-12-22 09:27:19.229Z201.133° SSW23.017°2024-12-22 09:31:19.229Z135.814° SSE
|